Torrington, WY

7:37 PM MST on February 13, 2016 (GMT -0700)
Torrington Municipal

Weather History for KTOR - February, 2014

Change the Weather History Date:

Thursday, February 20, 2014

  Actual Average Record
Temperature  
Mean Temperature 30 °F 32 °F  
Max Temperature 38 °F 46 °F 57 °F (2005)
Min Temperature 22 °F 18 °F -7 °F (2006)
Degree Days  
Heating Degree Days 35 33  
Month to date heating degree days 876 693  
Since 1 July heating degree days 4730 4588  
Cooling Degree Days 0 0  
Month to date cooling degree days 0 0  
Year to date cooling degree days 0 0  
Moisture  
Dew Point 10 °F    
Average Humidity 47    
Maximum Humidity 74    
Minimum Humidity 20    
Precipitation  
Precipitation 0.00 in 0.02 in 0.16 in (2011)
Month to date precipitation 0.40 0.24  
Year to date precipitation 0.60 0.50  
Sea Level Pressure  
Sea Level Pressure 29.87 in    
Wind  
Wind Speed 18 mph (WNW)    
Max Wind Speed 38 mph    
Max Gust Speed 47 mph    
Visibility 10 miles    
Events      
T = Trace of Precipitation, MM = Missing Value Source: NWS Daily Summary

Daily Weather History Graph

Daily Weather History Graph

Search for Another Location

Airport or City:

Trip Planner

Search our weather history database for the weather conditions in past years. The results will help you decide how hot, cold, wet, or windy it might be!

Date:

Astronomy

Feb. 20, 2014 Rise Set
Actual Time 6:45 AM MST 5:35 PM MST
Civil Twilight 6:17 AM MST 6:04 PM MST
Nautical Twilight 5:44 AM MST 6:36 PM MST
Astronomical Twilight 5:12 AM MST 7:09 PM MST
Moon 11:39 PM MST (2/20) 9:23 AM MST (2/20)
Length of Visible Light 11h 47m
Length of Day
10h 50m
Waning Gibbous, 70% of the Moon is Illuminated
Feb 20
Waning Gibbous
Feb 22
Last Quarter
Mar 1
New
Mar 8
First Quarter
Mar 16
Full

Hourly Weather History & Observations

Time (MST) Temp. Windchill Dew Point Humidity Pressure Visibility Wind Dir Wind Speed Gust Speed Precip Events Conditions
12:53 AM 28.0 °F 18.6 °F 19.0 °F 69% 29.74 in 10.0 mi WNW 10.4 mph - N/A   Clear
1:53 AM 27.0 °F 18.7 °F 15.1 °F 61% 29.75 in 10.0 mi NW 8.1 mph - N/A   Clear
2:53 AM 25.0 °F 17.1 °F 16.0 °F 69% 29.75 in 10.0 mi NW 6.9 mph - N/A   Partly Cloudy
3:53 AM 25.0 °F 14.8 °F 17.1 °F 72% 29.77 in 10.0 mi NW 10.4 mph - N/A   Clear
4:53 AM 24.1 °F 13.1 °F 15.1 °F 69% 29.85 in 10.0 mi NW 11.5 mph - N/A   Partly Cloudy
5:53 AM 23.0 °F 12.4 °F 14.0 °F 68% 29.88 in 10.0 mi West 10.4 mph - N/A   Clear
6:53 AM 26.1 °F 13.1 °F 10.0 °F 51% 29.91 in 10.0 mi WNW 17.3 mph - N/A   Mostly Cloudy
7:53 AM 28.0 °F 14.6 °F 10.9 °F 49% 29.93 in 10.0 mi WNW 20.7 mph 25.3 mph N/A   Clear
8:53 AM 30.9 °F 17.8 °F 9.0 °F 40% 29.93 in 10.0 mi NW 23.0 mph 34.5 mph N/A   Clear
9:53 AM 32.0 °F 18.6 °F 9.0 °F 38% 29.94 in 10.0 mi WNW 25.3 mph 38.0 mph N/A   Clear
10:53 AM 34.0 °F 21.8 °F 9.0 °F 35% 29.94 in 10.0 mi WNW 23.0 mph 40.3 mph N/A   Partly Cloudy
11:53 AM 34.0 °F 21.0 °F 8.1 °F 34% 29.94 in 10.0 mi NW 26.5 mph 41.4 mph N/A   Scattered Clouds
12:53 PM 36.0 °F 23.5 °F 7.0 °F 30% 29.93 in 10.0 mi WNW 27.6 mph 43.7 mph N/A   Mostly Cloudy
1:53 PM 37.0 °F 24.1 °F 7.0 °F 29% 29.91 in 10.0 mi WNW 32.2 mph 44.9 mph N/A   Partly Cloudy
2:53 PM 37.0 °F 24.7 °F 3.0 °F 24% 29.92 in 10.0 mi WNW 28.8 mph 40.3 mph N/A   Clear
3:53 PM 37.9 °F 27.1 °F -0.9 °F 19% 29.91 in 10.0 mi NW 23.0 mph 34.5 mph N/A   Clear
4:53 PM 36.0 °F 25.6 °F 1.0 °F 23% 29.91 in 10.0 mi NW 18.4 mph 23.0 mph N/A   Clear
5:53 PM 32.0 °F 24.8 °F 3.0 °F 29% 29.91 in 10.0 mi NW 8.1 mph - N/A   Clear
6:53 PM 28.0 °F - 7.0 °F 41% 29.91 in 10.0 mi Calm Calm - N/A   Clear
7:53 PM 30.0 °F 19.1 °F 10.9 °F 45% 29.89 in 10.0 mi West 15.0 mph 25.3 mph N/A   Clear
8:53 PM 33.1 °F 21.2 °F 12.0 °F 42% 29.87 in 10.0 mi West 20.7 mph 27.6 mph N/A   Clear
9:53 PM 34.0 °F 21.5 °F 12.0 °F 40% 29.83 in 10.0 mi West 24.2 mph 33.4 mph N/A   Clear
10:53 PM 35.1 °F 24.1 °F 10.9 °F 37% 29.82 in 10.0 mi WNW 19.6 mph 34.5 mph N/A   Clear
11:53 PM 36.0 °F 22.8 °F 10.0 °F 34% 29.80 in 10.0 mi WNW 31.1 mph 43.7 mph N/A   Overcast